Home   Weather   Marrakech   Past weeks

Flag for Morocco Past Weather in Marrakech, Morocco — Yesterday and Last 2 Weeks

Now
75 °F

Partly sunny.


Feels Like: 78 °F
Forecast: 57 / 82 °F
Wind: 3 mph from North

Location: Marrakech Airport

Current Time: May 29, 2017 at 1:33:02 pm

Latest Report: May 29, 2017 at 1:00 pm


Visibility: N/A

Pressure: 30.07 "Hg

Humidity: 44%

Dew Point: 52 °F

Location of MarrakechLocation

Past Weather in Marrakech — Graph

°F

Marrakech Temperature Yesterday

Maximum temperature yesterday: 82 °F (at 4:00 pm)
Minimum temperature yesterday: 63 °F (at 3:00 am)
Average temperature yesterday: 74 °F

High & Low Weather Summary for the Past Weeks

 TemperatureHumidityPressure
High106 °F (May 20, 1:30 pm)83% (May 24, 7:30 am)30.15 "Hg (May 24, 7:30 am)
Low59 °F (May 29, 4:30 am)4% (May 16, 3:30 pm)29.83 "Hg (May 20, 3:36 pm)
Average77 °F39%29.98 "Hg
* Reported May 14 1:00 pm — May 29 12:00 pm, Marrakech. Weather by CustomWeather, © 2017

Note: Actual official high and low records may vary slightly from our data, if they occured in-between our weather recording intervals... More about our weather records

Advertising

Marrakech Weather History for the Previous 24 Hours

Scroll right to see more
 ConditionsComfort  
Time TempWeatherWind HumidityBarometerVisibility
12:00 pm
Mon, May 29
73 °FPartly sunny.5 mph47%30.09 "HgN/A
11:30 am72 °FPartly sunny.3 mph47%30.09 "HgN/A
11:00 am70 °FPartly sunny.5 mph53%30.09 "HgN/A
10:30 am68 °FPartly sunny.5 mph56%30.09 "HgN/A
10:00 am68 °FPartly sunny.2 mph56%30.09 "HgN/A
9:30 am66 °FPartly sunny.5 mph60%30.09 "HgN/A
9:00 am64 °FPartly sunny.5 mph64%30.09 "HgN/A
8:30 am64 °FPartly sunny.6 mph64%30.09 "HgN/A
8:00 am63 °FScattered clouds.5 mph68%30.07 "HgN/A
7:30 am63 °FScattered clouds.5 mph68%30.07 "HgN/A
7:00 am61 °FScattered clouds.7 mph68%30.07 "HgN/A
6:30 am59 °FScattered clouds.8 mph72%30.07 "HgN/A
6:00 am59 °FScattered clouds.6 mph72%30.07 "HgN/A
5:30 am59 °FScattered clouds.8 mph72%30.07 "HgN/A
5:00 am59 °FScattered clouds.7 mph72%30.07 "HgN/A
4:30 am59 °FScattered clouds.6 mph72%30.07 "HgN/A
4:00 am61 °FPassing clouds.7 mph63%30.07 "HgN/A
3:30 am63 °FPassing clouds.8 mph59%30.07 "HgN/A
3:00 am63 °FPassing clouds.7 mph56%30.07 "HgN/A
2:30 am64 °FPassing clouds.7 mph56%30.07 "HgN/A
2:00 am66 °FPassing clouds.7 mph52%30.07 "HgN/A
1:30 am66 °FPassing clouds.7 mph52%30.07 "HgN/A
12:30 am66 °FPassing clouds.6 mph52%30.09 "HgN/A
12:00 am68 °FPassing clouds.No wind53%30.09 "HgN/A
11:30 pm
Sun, May 28
68 °FPassing clouds.3 mph53%30.09 "HgN/A
11:00 pm70 °FPassing clouds.5 mph46%30.12 "HgN/A
10:30 pm70 °FPassing clouds.7 mph46%30.12 "HgN/A
10:00 pm70 °FPassing clouds.6 mph46%30.12 "HgN/A
9:30 pm72 °FPassing clouds.8 mph44%30.12 "HgN/A
9:00 pm72 °FPassing clouds.12 mph44%30.09 "HgN/A
8:30 pm73 °FPassing clouds.13 mph41%30.09 "HgN/A
7:30 pm77 °FPassing clouds.15 mph34%30.07 "HgN/A
7:00 pm79 °FPassing clouds.18 mph30%30.04 "HgN/A
6:30 pm82 °FPassing clouds.9 mph23%30.04 "HgN/A
6:00 pm82 °FScattered clouds.9 mph23%30.04 "HgN/A
5:30 pm82 °FScattered clouds.7 mph25%30.04 "HgN/A
5:00 pm82 °FScattered clouds.7 mph25%30.04 "HgN/A
4:30 pm81 °FScattered clouds.7 mph28%30.04 "HgN/A
4:00 pm82 °FScattered clouds.8 mph26%30.04 "HgN/A
3:30 pm81 °FScattered clouds.5 mph28%30.04 "HgN/A
2:30 pm79 °FScattered clouds.7 mph34%30.04 "HgN/A
2:00 pm79 °FScattered clouds.8 mph34%30.04 "HgN/A
1:30 pm79 °FScattered clouds.5 mph34%30.07 "HgN/A
1:00 pm77 °FScattered clouds.8 mph36%30.07 "HgN/A
Weather by CustomWeather, © 2017

See weather overviewHow to use our weather pages